Flag for Germany Weather past 2 weeks in Bernau bei Berlin, Brandenburg, Germany

Now
63 °F

Overcast.


Feels Like: 63 °F
Forecast: 56 / 63 °F
Wind: 6 mph from West

Location: Berlin-Tegel

Current Time: Jul 8, 2015 at 9:15:29 AM

Latest Report: Jul 8, 2015 at 9:00 AM


Visibility: 16 mi

Pressure: 29.69 "Hg

Humidity: 88%

Dew point: 60 °F

Location of Bernau bei BerlinLocation

Historic Weather in Bernau bei Berlin — Graph

°F

Bernau bei Berlin temperature yesterday

Maximum temperature yesterday: 90 °F (at 6:00 PM)
Minimum temperature yesterday: 59 °F (at 4:00 AM)
Average temperature yesterday: 74 °F

Past Weeks' High & Low Weather Summary

 TemperatureHumidityPressure
High98 °F (Jul 4, 4:00 PM)98% (Jun 24, 6:00 AM)30.29 "Hg (Jun 24, 6:00 AM)
Low49 °F (Jun 24, 5:00 AM)21% (Jul 7, 6:00 PM)29.62 "Hg (Jul 8, 1:00 AM)
Average70 °F59%30.08 "Hg
* Reported Jun 23 8:00 AM — Jul 8 8:00 AM, Bernau bei Berlin, Weather by CustomWeather, © 2015

Note: Actual official high and low records may vary slightly from our data, if they occured in-between our weather recording intervals... More about our weather records

Advertising

Bernau bei Berlin weather history for previous 24 hours

 ConditionsComfort  
Time TempWeatherWind HumidityBarometerVisibility
8:00 AM
Wed, Jul 8
63 °FSprinkles. Overcast.7 mph85%29.70 "Hg4 mi
7:00 AM66 °FPartly sunny.3 mph84%29.67 "Hg11 mi
5:00 AM65 °FScattered clouds.5 mph91%29.67 "Hg9 mi
4:00 AM66 °FPassing clouds.6 mph89%29.66 "Hg19 mi
3:00 AM67 °FOvercast.6 mph89%29.65 "HgN/A
2:00 AM67 °FOvercast.5 mph89%29.64 "Hg19 mi
1:00 AM68 °FPassing clouds.3 mph90%29.62 "Hg19 mi
11:00 PM
Tue, Jul 7
69 °FThundershowers. Overcast.2 mph92%29.70 "Hg9 mi
10:00 PM69 °FThunderstorms. Overcast.3 mph87%29.69 "Hg12 mi
9:00 PM84 °FThundershowers. Overcast.2 mph34%29.67 "Hg9 mi
8:00 PM87 °FPartly sunny.3 mph24%29.67 "Hg25 mi
7:00 PM90 °FScattered clouds.6 mph22%29.70 "Hg22 mi
6:00 PM90 °FScattered clouds.6 mph21%29.74 "Hg25 mi
5:00 PM88 °FScattered clouds.6 mph24%29.78 "Hg25 mi
4:00 PM88 °FPassing clouds.6 mph25%29.81 "Hg25 mi
3:00 PM86 °FPassing clouds.3 mph26%29.84 "Hg25 mi
2:00 PM84 °FPassing clouds.5 mph29%29.88 "Hg25 mi
1:00 PM82 °FPassing clouds.2 mph34%29.91 "Hg25 mi
12:00 PM80 °FPassing clouds.5 mph34%29.94 "Hg25 mi
11:00 AM78 °FSunny.3 mph38%29.96 "Hg25 mi
10:00 AM76 °FSunny.3 mph42%29.98 "Hg25 mi
9:00 AM73 °FSunny.3 mph47%30.01 "Hg25 mi
Weather by CustomWeather, © 2015

See weather overviewHow to use our weather pages